When you browse on this site, cookies collect data to enhance your experience and personalize the content and advertising you see.
Visit our Privacy Policy to learn more. By continuing to use the site, you agree to this use of cookies and data.
  • In Österreich
  • Länderverzeichnis
  • Für 7 Tage
  • Wassertemperatur
  • Wetterkarte
  • News
  • Widgets
  • user-avatar
    Anmelden

    Stündliche Wetter Salzburg

    Heute, 29 Mai, Freitag

    Zeit Temperatur Niederschläge Wind Luftdruck Luftfeuchtigkeit
    00:00 -1°C° 0.1 mm 0 m/S 630 mmHg 95%
    01:00 -2°C° 0 mm 0 m/S 629 mmHg 94%
    02:00 -2°C° 0 mm 0 m/S 629 mmHg 95%
    03:00 -2°C° 0 mm 0 m/S 629 mmHg 95%
    04:00 -3°C° 0 mm 0 m/S 629 mmHg 95%
    05:00 -1°C° 0 mm 0 m/S 629 mmHg 93%
    06:00 +1°C° 0 mm 0 m/S 630 mmHg 91%
    07:00 +3°C° 0 mm 0 m/S 631 mmHg 88%
    08:00 +4°C° 0 mm 0 m/S 631 mmHg 82%
    09:00 +6°C° 0 mm 1 m/S 631 mmHg 77%
    10:00 +7°C° 0 mm 1 m/S 630 mmHg 72%
    11:00 +8°C° 0.1 mm 1 m/S 630 mmHg 68%
    12:00 +8°C° 0.1 mm 2 m/S 630 mmHg 65%
    13:00 +8°C° 0 mm 2 m/S 631 mmHg 63%
    14:00 +8°C° 0.1 mm 2 m/S 630 mmHg 61%
    15:00 +8°C° 0.1 mm 2 m/S 630 mmHg 59%
    16:00 +9°C° 0.1 mm 2 m/S 629 mmHg 57%
    17:00 +7°C° 0.1 mm 2 m/S 629 mmHg 66%
    18:00 +7°C° 0.1 mm 1 m/S 629 mmHg 76%
    19:00 +6°C° 0.1 mm 1 m/S 628 mmHg 85%
    20:00 +4°C° 0 mm 1 m/S 628 mmHg 89%
    21:00 +3°C° 0 mm 1 m/S 628 mmHg 92%
    22:00 0°C° 0 mm 0 m/S 627 mmHg 96%
    23:00 0°C° 0 mm 0 m/S 627 mmHg 96%

    Morgen, 30 Mai, Samstag

    Zeit Temperatur Niederschläge Wind Luftdruck Luftfeuchtigkeit
    00:00 0°C° 0 mm 0 m/S 627 mmHg 95%
    01:00 -1°C° 0 mm 0 m/S 627 mmHg 95%
    02:00 -1°C° 0 mm 0 m/S 627 mmHg 96%
    03:00 -1°C° 0 mm 0 m/S 626 mmHg 96%
    04:00 -1°C° 0 mm 0 m/S 626 mmHg 96%
    05:00 0°C° 0 mm 0 m/S 627 mmHg 93%
    06:00 +2°C° 0 mm 0 m/S 627 mmHg 90%
    07:00 +4°C° 0 mm 1 m/S 627 mmHg 87%
    08:00 +6°C° 0 mm 1 m/S 628 mmHg 76%
    09:00 +7°C° 0 mm 1 m/S 628 mmHg 66%
    10:00 +8°C° 0 mm 2 m/S 628 mmHg 56%
    11:00 +8°C° 0.1 mm 2 m/S 628 mmHg 58%
    12:00 +8°C° 0.1 mm 2 m/S 628 mmHg 60%
    13:00 +7°C° 0.1 mm 2 m/S 627 mmHg 62%
    14:00 +7°C° 0.2 mm 2 m/S 627 mmHg 66%
    15:00 +7°C° 0.2 mm 2 m/S 627 mmHg 71%
    16:00 +6°C° 0.2 mm 2 m/S 627 mmHg 76%
    17:00 +6°C° 0.2 mm 2 m/S 627 mmHg 82%
    18:00 +6°C° 0.2 mm 1 m/S 626 mmHg 88%
    19:00 +5°C° 0.2 mm 1 m/S 626 mmHg 94%
    20:00 +4°C° 0 mm 1 m/S 626 mmHg 95%
    21:00 +3°C° 0 mm 1 m/S 626 mmHg 96%
    22:00 +1°C° 0 mm 0 m/S 626 mmHg 97%
    23:00 +1°C° 0 mm 0 m/S 626 mmHg 96%

    übermorgen, 31 Mai, Sonntag

    Zeit Temperatur Niederschläge Wind Luftdruck Luftfeuchtigkeit
    00:00 0°C° 0 mm 0 m/S 626 mmHg 96%
    01:00 0°C° 0 mm 0 m/S 626 mmHg 96%
    02:00 -1°C° 0 mm 0 m/S 626 mmHg 96%
    03:00 -1°C° 0 mm 0 m/S 625 mmHg 96%
    04:00 -1°C° 0 mm 0 m/S 625 mmHg 96%
    05:00 0°C° 0 mm 0 m/S 626 mmHg 93%
    06:00 +2°C° 0 mm 0 m/S 626 mmHg 91%
    07:00 +3°C° 0 mm 0 m/S 626 mmHg 88%
    08:00 +5°C° 0 mm 1 m/S 627 mmHg 80%
    09:00 +7°C° 0 mm 1 m/S 627 mmHg 72%
    10:00 +8°C° 0 mm 1 m/S 627 mmHg 64%
    11:00 +8°C° 0 mm 2 m/S 628 mmHg 58%
    12:00 +9°C° 0 mm 2 m/S 628 mmHg 53%
    13:00 +10°C° 0 mm 2 m/S 628 mmHg 48%
    14:00 +9°C° 0 mm 2 m/S 628 mmHg 50%
    15:00 +9°C° 0 mm 2 m/S 628 mmHg 52%
    16:00 +9°C° 0 mm 2 m/S 628 mmHg 54%
    17:00 +8°C° 0 mm 2 m/S 628 mmHg 62%
    18:00 +7°C° 0 mm 2 m/S 627 mmHg 70%
    19:00 +7°C° 0 mm 1 m/S 627 mmHg 78%
    20:00 +5°C° 0 mm 1 m/S 627 mmHg 82%
    21:00 +4°C° 0 mm 1 m/S 627 mmHg 86%
    22:00 +2°C° 0 mm 0 m/S 627 mmHg 89%
    23:00 +2°C° 0 mm 0 m/S 627 mmHg 89%

    1 Juni, Montag

    Zeit Temperatur Niederschläge Wind Luftdruck Luftfeuchtigkeit
    00:00 +2°C° 0 mm 0 m/S 627 mmHg 89%
    01:00 +2°C° 0 mm 0 m/S 627 mmHg 89%
    02:00 +2°C° 0 mm 1 m/S 626 mmHg 90%
    03:00 +2°C° 0 mm 1 m/S 626 mmHg 92%
    04:00 +2°C° 0 mm 1 m/S 626 mmHg 93%
    05:00 +4°C° 0 mm 1 m/S 627 mmHg 87%
    06:00 +4°C° 0 mm 0 m/S 627 mmHg 80%
    07:00 +6°C° 0 mm 0 m/S 628 mmHg 74%
    08:00 +9°C° 0 mm 1 m/S 629 mmHg 67%
    09:00 +11°C° 0 mm 1 m/S 629 mmHg 59%
    10:00 +13°C° 0 mm 2 m/S 630 mmHg 52%
    11:00 +13°C° 0 mm 2 m/S 630 mmHg 52%
    12:00 +13°C° 0 mm 2 m/S 630 mmHg 51%
    13:00 +13°C° 0 mm 2 m/S 629 mmHg 51%
    14:00 +13°C° 0 mm 2 m/S 629 mmHg 52%
    15:00 +12°C° 0 mm 3 m/S 629 mmHg 53%
    16:00 +12°C° 0 mm 3 m/S 629 mmHg 54%
    17:00 +12°C° 0 mm 2 m/S 629 mmHg 62%
    18:00 +10°C° 0 mm 2 m/S 628 mmHg 71%
    19:00 +9°C° 0 mm 1 m/S 628 mmHg 79%
    20:00 +7°C° 0 mm 1 m/S 628 mmHg 85%
    21:00 +6°C° 0 mm 1 m/S 627 mmHg 90%
    22:00 +3°C° 0 mm 0 m/S 627 mmHg 95%
    23:00 +2°C° 0 mm 0 m/S 627 mmHg 95%

    2 Juni, Dienstag

    Zeit Temperatur Niederschläge Wind Luftdruck Luftfeuchtigkeit
    00:00 +2°C° 0 mm 0 m/S 627 mmHg 96%
    01:00 +2°C° 0 mm 0 m/S 626 mmHg 96%
    02:00 +1°C° 0 mm 0 m/S 626 mmHg 96%
    03:00 +1°C° 0 mm 0 m/S 626 mmHg 95%
    04:00 +1°C° 0 mm 0 m/S 626 mmHg 95%
    05:00 +3°C° 0 mm 0 m/S 627 mmHg 89%
    06:00 +5°C° 0 mm 0 m/S 627 mmHg 83%
    07:00 +7°C° 0 mm 0 m/S 628 mmHg 76%
    08:00 +10°C° 0 mm 1 m/S 628 mmHg 66%
    09:00 +11°C° 0 mm 1 m/S 629 mmHg 55%
    10:00 +13°C° 0 mm 2 m/S 629 mmHg 44%
    11:00 +14°C° 0 mm 2 m/S 629 mmHg 43%
    12:00 +14°C° 0 mm 2 m/S 629 mmHg 42%
    13:00 +15°C° 0 mm 2 m/S 629 mmHg 40%
    14:00 +14°C° 0 mm 3 m/S 628 mmHg 42%
    15:00 +13°C° 0 mm 3 m/S 628 mmHg 45%
    16:00 +13°C° 0 mm 3 m/S 628 mmHg 47%
    17:00 +13°C° 0 mm 2 m/S 627 mmHg 56%
    18:00 +10°C° 0 mm 2 m/S 626 mmHg 64%
    19:00 +9°C° 0 mm 1 m/S 625 mmHg 73%
    20:00 +8°C° 0 mm 1 m/S 625 mmHg 78%
    21:00 +6°C° 0 mm 1 m/S 624 mmHg 84%
    22:00 +4°C° 0 mm 1 m/S 624 mmHg 89%
    23:00 +4°C° 0 mm 1 m/S 623 mmHg 89%

    3 Juni, Mittwoch

    Zeit Temperatur Niederschläge Wind Luftdruck Luftfeuchtigkeit
    00:00 +3°C° 0 mm 1 m/S 623 mmHg 88%
    01:00 +3°C° 0 mm 1 m/S 622 mmHg 88%
    02:00 +3°C° 0 mm 1 m/S 622 mmHg 87%
    03:00 +3°C° 0 mm 1 m/S 622 mmHg 87%
    04:00 +2°C° 0 mm 1 m/S 621 mmHg 86%
    05:00 +5°C° 0 mm 1 m/S 622 mmHg 77%
    06:00 +7°C° 0 mm 1 m/S 622 mmHg 68%
    07:00 +9°C° 0 mm 0 m/S 623 mmHg 59%
    08:00 +12°C° 0 mm 1 m/S 624 mmHg 52%
    09:00 +14°C° 0 mm 1 m/S 624 mmHg 45%
    10:00 +16°C° 0 mm 1 m/S 625 mmHg 38%
    11:00 +18°C° 0 mm 1 m/S 624 mmHg 36%
    12:00 +17°C° 0 mm 2 m/S 624 mmHg 35%
    13:00 +18°C° 0 mm 2 m/S 624 mmHg 33%
    14:00 +18°C° 0 mm 2 m/S 623 mmHg 36%
    15:00 +17°C° 0 mm 2 m/S 623 mmHg 39%
    16:00 +17°C° 0 mm 2 m/S 623 mmHg 42%
    17:00 +15°C° 0.1 mm 2 m/S 622 mmHg 54%
    18:00 +13°C° 0.1 mm 1 m/S 621 mmHg 67%
    19:00 +11°C° 0.1 mm 1 m/S 620 mmHg 80%
    20:00 +10°C° 0 mm 1 m/S 620 mmHg 83%
    21:00 +7°C° 0 mm 2 m/S 619 mmHg 86%
    22:00 +6°C° 0 mm 2 m/S 619 mmHg 89%
    23:00 +6°C° 0 mm 2 m/S 619 mmHg 89%
    Mehr zeigen